SCP
0 0 0 0 0 0 0 0 0 0 0 0 0 0 0 0 0 0 0 0 0 0
0 0 0 0 0 0 0 0 0 0 0 0 0 0 0 0 0 0 0 0 0 0
0 0 0 0 0 0 0 0 0 0 0 0 0 0 0 0 0 0 0 0 0 0
0 0 0 0 0 0 0 0 0 0 0 0 0 0 0 0 0 0 0 0 0 0
0 0 0 0 0 0 0 0 0 0 0 0 0 0 0 0 0 0 0 0 0 0
0 0 0 0 0 0 0 0 0 0 0 0 0 0 0 0 0 0 0 0 0 0
0 0 0 0 0 0 0 0 0 0 0 0 0 0 0 0 0 0 0 0 0 0
0 0 0 0 0 0 0 0 0 0 0 0 0 0 0 0 0 0 0 0 0 0
0 0 0 0 0 0 0 0 0 0 0 0 0 0 0 0 0 0 0 0 0 0
0 0 0 0 0 0 0 0 0 0 0 0 0 0 0 0 0 0 0 0 0 0
0 0 0 0 0 0 0 0 0 0 0 0 0 0 0 0 0 0 0 0 0 0
0 0 0 0 0 0 0 0 0 0 0 0 0 0 0 0 0 0 0 0 0 0
0 0 0 0 0 0 0 0 0 0 0 0 0 0 0 0 0 0 0 0 0 0
0 0 0 0 0 0 0 0 0 0 0 0 0 0 0 0 0 0 0 0 0 0
Wind_Speed_500mb
19 20 24 26 28 31 34 36 36 35 36 37 40 44 38 30 29 26 19 22 25 22
19 18 20 25 26 28 31 32 31 31 33 35 38 41 39 31 28 28 25 25 25 23
19 18 18 22 24 25 27 28 26 26 27 32 36 39 38 35 30 25 25 25 26 27
17 19 18 20 21 23 25 26 22 20 22 26 30 34 37 36 34 31 30 31 30 27
17 19 21 20 19 21 22 23 20 19 18 21 23 29 32 34 36 37 33 32 29 27
19 20 22 21 17 19 20 21 21 19 18 19 19 26 29 31 33 36 34 31 29 30
23 22 22 20 16 17 19 19 21 21 19 19 19 22 25 28 30 31 30 26 22 26
18 21 19 17 14 14 14 17 19 21 21 20 20 22 25 27 28 27 26 24 21 21
15 17 16 14 16 15 14 17 19 24 26 24 21 22 24 27 26 24 25 26 23 23
16 16 14 17 19 15 17 22 25 26 31 34 31 29 27 27 27 25 26 27 27 27
17 16 19 22 24 19 21 25 28 28 33 37 35 32 32 34 34 31 30 29 28 29
18 17 19 19 23 24 23 27 31 33 33 43 36 31 32 37 40 39 35 34 33 32
19 19 19 17 15 19 26 32 39 42 46 48 40 34 32 33 38 42 38 37 37 34
20 22 24 27 27 31 37 41 43 46 44 39 36 37 34 32 33 37 38 35 33 30
Wind_Direction_500mb
358 358 1 5 6 6 7 8 13 12 14 16 13 13 10 7 8 6 4 9 7 4
359 358 359 3 3 4 6 7 12 13 20 19 18 16 16 14 13 18 18 12 10 3
6 360 358 359 360 0 3 7 9 15 23 26 26 25 25 24 25 23 19 17 19 20
358 5 354 350 350 354 357 1 3 10 18 21 23 25 28 26 24 21 20 15 14 10
330 341 345 340 339 345 347 352 351 357 360 4 5 10 15 16 16 16 8 4 10 11
309 319 330 335 331 337 338 340 343 342 345 341 343 354 359 1 4 6 11 19 26 30
292 302 312 320 320 331 333 335 336 341 338 341 341 346 350 355 358 359 359 6 15 26
287 297 299 312 317 324 336 341 337 336 338 335 340 346 349 350 353 352 355 353 354 0
286 298 283 297 311 310 321 326 330 332 327 322 320 324 327 333 332 335 337 343 346 344
284 302 287 280 295 294 303 313 319 318 312 309 310 305 310 311 318 320 320 324 329 331
275 285 285 290 291 273 289 305 319 326 328 319 310 305 302 303 306 306 310 310 312 321
269 272 279 291 293 271 276 294 307 312 316 320 314 310 308 295 297 301 302 297 298 304
272 272 269 276 279 275 282 291 299 304 311 312 315 313 308 306 298 299 304 300 297 296
283 281 278 278 283 285 288 293 297 302 309 314 317 316 308 302 306 304 300 296 299 297
Wind_Speed_850mb
19 20 24 26 28 31 34 36 36 35 36 37 40 44 38 30 29 26 19 22 25 22
19 18 20 25 26 28 31 32 31 31 33 35 38 41 39 31 28 28 25 25 25 23
19 18 18 22 24 25 27 28 26 26 27 32 36 39 38 35 30 25 25 25 26 27
17 19 18 20 21 23 25 26 22 20 22 26 30 34 37 36 34 31 30 31 30 27
17 19 21 20 19 21 22 23 20 19 18 21 23 29 32 34 36 37 33 32 29 27
19 20 22 21 17 19 20 21 21 19 18 19 19 26 29 31 33 36 34 31 29 30
23 22 22 20 16 17 19 19 21 21 19 19 19 22 25 28 30 31 30 26 22 26
18 21 19 17 14 14 14 17 19 21 21 20 20 22 25 27 28 27 26 24 21 21
15 17 16 14 16 15 14 17 19 24 26 24 21 22 24 27 26 24 25 26 23 23
16 16 14 17 19 15 17 22 25 26 31 34 31 29 27 27 27 25 26 27 27 27
17 16 19 22 24 19 21 25 28 28 33 37 35 32 32 34 34 31 30 29 28 29
18 17 19 19 23 24 23 27 31 33 33 43 36 31 32 37 40 39 35 34 33 32
19 19 19 17 15 19 26 32 39 42 46 48 40 34 32 33 38 42 38 37 37 34
20 22 24 27 27 31 37 41 43 46 44 39 36 37 34 32 33 37 38 35 33 30
Wind_Direction_850mb
358 358 1 5 6 6 7 8 13 12 14 16 13 13 10 7 8 6 4 9 7 4
359 358 359 3 3 4 6 7 12 13 20 19 18 16 16 14 13 18 18 12 10 3
6 360 358 359 360 0 3 7 9 15 23 26 26 25 25 24 25 23 19 17 19 20
358 5 354 350 350 354 357 1 3 10 18 21 23 25 28 26 24 21 20 15 14 10
330 341 345 340 339 345 347 352 351 357 360 4 5 10 15 16 16 16 8 4 10 11
309 319 330 335 331 337 338 340 343 342 345 341 343 354 359 1 4 6 11 19 26 30
292 302 312 320 320 331 333 335 336 341 338 341 341 346 350 355 358 359 359 6 15 26
287 297 299 312 317 324 336 341 337 336 338 335 340 346 349 350 353 352 355 353 354 0
286 298 283 297 311 310 321 326 330 332 327 322 320 324 327 333 332 335 337 343 346 344
284 302 287 280 295 294 303 313 319 318 312 309 310 305 310 311 318 320 320 324 329 331
275 285 285 290 291 273 289 305 319 326 328 319 310 305 302 303 306 306 310 310 312 321
269 272 279 291 293 271 276 294 307 312 316 320 314 310 308 295 297 301 302 297 298 304
272 272 269 276 279 275 282 291 299 304 311 312 315 313 308 306 298 299 304 300 297 296
283 281 278 278 283 285 288 293 297 302 309 314 317 316 308 302 306 304 300 296 299 297